Location: Bagnolo San Vito
(45.0833°N, 10.8833°E)
Time: 23:49:59
(UTC+00:00)

NOSS 3-3 (A) - Pass Details

Date: 03 March 2021
Orbit: 815 x 1397 km, 63.4° (Epoch: 15 April)

Event Time Altitude Azimuth Distance (km) Brightness Sun altitude
Rises 20:08:55 0° 322° (NW) 3,966 8.1 -32.2°
Reaches altitude 10° 20:11:29 10° 323° (NW) 3,082 7.3 -32.6°
Enters shadow 20:18:47 81° 17° (NNE) 1,295 4.4 -33.7°
